Regional Weather Roundup
Issued by NWS

Home | Current Version | Previous Version | Text Only | Print | Product List | Glossary On
Versions: 1 2 3 4 5 6 7 8 9 10 11 12 13 14 15 16 17 18 19 20 21 22 23 24 25 26 27 28 29 30 31 32 33 34 35 36 37 38 39 40 41 42 43 44 45 46 47 48 49 50
000
ASUS44 KLUB 271801
RWRTX
WEST TEXAS WEATHER ROUNDUP
NATIONAL WEATHER SERVICE LUBBOCK TX
100 PM CDT SAT AUG 27 2016

NOTE: "FAIR" INDICATES FEW OR NO CLOUDS BELOW 12,000 FEET WITH NO
SIGNIFICANT WEATHER AND/OR OBSTRUCTIONS TO VISIBILITY.

TXZ004-006>008-010-012-014-016-OKZ002-271900-
TEXAS PANHANDLE/OKLAHOMA PANHANDLE

CITY           SKY/WX    TMP DP  RH WIND       PRES   REMARKS
AMARILLO       SUNNY     83  61  47 S15       30.10F
BORGER         SUNNY     85  64  49 SW13      30.07F
CANADIAN       SUNNY     85  65  50 S7        30.04F
DALHART        SUNNY     86  57  37 SW15      30.09F
DUMAS          SUNNY     83  64  53 SW12      30.09F
GUYMON         SUNNY     86  60  41 S14G21    30.03F
HEREFORD       SUNNY     84  62  47 SW10      30.12F
PERRYTON       SUNNY     83  65  56 S8        30.06S
$$

TXZ026-029-035-045-048-271900-
SOUTHERN PANHANDLE/SOUTH PLAINS/ROLLING PLAINS

CITY           SKY/WX    TMP DP  RH WIND       PRES   REMARKS
CHILDRESS      SUNNY     85  65  51 W6        30.04F
LUBBOCK        MOSUNNY   84  62  47 W7G21     30.10F
PLAINVIEW      MOSUNNY   81  63  54 SW8       30.10F
SNYDER           N/A     83  68  59 SW5       30.08F
$$

TXZ052-054-060>062-072-078-127-140-154-169-271900-
PERMIAN BASIN/CONCHO VALLEY/BIG COUNTRY/EDWARDS PLATEAU

CITY           SKY/WX    TMP DP  RH WIND       PRES   REMARKS
ABILENE        SUNNY     88  68  51 CALM      30.05F
BIG SPRING     MOSUNNY   85  64  47 SE7       30.09F
BROWNWOOD      SUNNY     86  68  54 E5        30.03F
JUNCTION       SUNNY     89  65  44 CALM      30.04F
MIDLAND        HAZE      85  61  44 S9        30.07F VSB 1
ODESSA         SUNNY     85  61  44 S13       30.09F
SAN ANGELO     MOSUNNY   91  63  39 VRB6      30.04F
SONORA         PTSUNNY   84  68  58 VRB7      30.11F
SWEETWATER     CLOUDY    86  67  52 SW6       30.10F
WINK           SUNNY     84  62  47 VRB5      30.05F
$$

TXZ055-058-074-075-080-082-271900-
FAR WEST/SOUTHWEST MOUNTAINS/TRANS PECOS

CITY           SKY/WX    TMP DP  RH WIND       PRES   REMARKS
ALPINE         PTSUNNY   80  59  49 SW12G17   30.21F
DRYDEN           N/A     83  70  64 VRB7      30.04F
EL PASO        MOSUNNY   82  61  48 VRB3      30.10F
FORT STOCKTON  MOSUNNY   84  63  49 MISG      30.08F
GUADALUPE PASS SUNNY     77  62  59 SW12      30.23S
MARFA          MOSUNNY  N/A N/A N/A VRB5      30.20F
PECOS          SUNNY     82  64  55 CALM      30.06S
PRESIDIO       FAIR      83  63  51 SE7       30.07F
$$

TXZ014-016-019-021>030-083-271900
TEXAS TECH WEST TEXAS MESONET/TEXAS PANHANDLE/NORTHERN SOUTH PLAINS

CITY           SKY/WX    TMP DP  RH WIND       PRES   REMARKS
ABERNATHY 5ENE   N/A     82  64  53 SW9       30.13F
AMARILLO 9NNE    N/A     85  63  48 S14       30.09F
AMARILLO 7SSE    N/A     83  61  48 S12       30.12F
AMHERST 1NE      N/A     81  63  53 SW10G17   30.13S
BOOTLEG 11WNW    N/A     82  61  49 S15       30.16F
CANADIAN 6E      N/A     86  63  45 SW9       30.04F
CHILDRESS 2NNE   N/A     87  65  47 S5        30.06F
CLARENDON 2WSW   N/A     82  64  53 S6        30.10S
CLAUDE 12SW      N/A     81  64  55 S9        30.12S
PALO DURO SP     N/A     84  61  45 S7        30.12F
$$

TXZ033>036-039>041-045>048-271900
TEXAS TECH WEST TEXAS MESONET/SOUTH PLAINS

CITY           SKY/WX    TMP DP  RH WIND       PRES   REMARKS
AIKEN 3WSW       N/A     83  63  51 SW10      30.13S
ANTON 6SSW       N/A     82  65  55 S9G15     30.12F
BROWNFIELD 2S    N/A     81  62  51 S12       30.12F
$$

TXZ031-032-036>038-042>044-271900-
TEXAS TECH WEST TEXAS MESONET/ROLLING PLAINS

CITY           SKY/WX    TMP DP  RH WIND       PRES   REMARKS
ASPERMONT 3NE    N/A     91  65  43 S5        30.04F
$$

TXZ052-054-060>062-072-078-127-140-154-169-271900-
TEXAS TECH WEST TEXAS MESONET/PERMIAN BASIN/
CONCHO VALLEY/BIG COUNTRY/EDWARDS PLATEAU

CITY           SKY/WX    TMP DP  RH WIND       PRES   REMARKS
$$

TXZ055-058-074-075-080-082-271900-
TEXAS TECH WEST TEXAS MESONET/FAR WEST/SOUTHWEST MOUNTAINS/TRANS PECOS

CITY           SKY/WX    TMP DP  RH WIND       PRES   REMARKS
$$




USA.gov is the U.S. government's official web portal to all federal, state and local government web resources and services.